{"data":{"norad_id":55413,"intl_designator":"2023-014Y","name":"STARLINK-5060","alt_names":[],"object_type":"PAYLOAD","status":"ACTIVE","operator":null,"country":"US","launch_date":"2023-01-31","launch_site_code":"AFWTR","launch_vehicle":null,"mission":null,"orbit_class":"UNKNOWN","rcs_meters":null,"size_class":null,"mass_kg":null,"dimensions":null,"purposes":["comms"],"wikipedia_slug":null,"has_3d_model":false,"image_url":null,"decayed_at":null,"tle_current":{"epoch":"2026-05-25T00:59:13.327872Z","epoch_age_seconds":85674,"freshness":"FRESH","line1":"1 55413U 23014Y   26145.04112648 -.00001304  00000+0 -10150-3 0  9991","line2":"2 55413  69.9991 251.7500 0003569 262.1124  97.9630 14.98315223183008","mean_motion":14.98315223,"eccentricity":0.0003569,"inclination_deg":69.9991,"raan_deg":251.75,"arg_perigee_deg":262.1124,"mean_anomaly_deg":97.963,"bstar":-0.0001015,"rev_number":18300,"period_min":96.107946972384,"perigee_km":569.62104782147,"apogee_km":574.58212812557,"semimajor_km":6950.2385879735,"source":"CELESTRAK","updated_at":"2026-05-25T13:38:17.796990Z"}}}